Location: Ar Ranvel
(48.3000°N, 4.8833°W)
Time: 12:49:59
(UTC+00:00)

IGS 5A - Pass Details

Date: 16 June 2021
Orbit: 583 x 587 km, 97.6° (Epoch: 17 July)

Event Time Altitude Azimuth Distance (km) Brightness Sun altitude
Exits shadow 21:12:05 - 179° (S) 2,697 6.4 -6.9°
Reaches altitude 10° 21:14:01 10° 184° (S) 1,908 5.7 -7.1°
Maximum altitude 21:18:04 51° 260° (W) 743 4.2 -7.5°
Drops below altitude 10° 21:22:08 10° 338° (NNW) 1,925 7.5 -8.0°
Sets 21:24:22 0° 343° (NNW) 2,831 8.4 -8.2°
